IRIDIUM 33 DEB, 34497

Orbit data source: Space-Track

IRIDIUM 33 DEB, 34497 is space debris in LEO originally from a launch on Sun, 14 Sep 1997 UTC launched from the Tyuratam Missile And Space Complex (TTMTR). The debris from Iridium 33, an American commercial communications satellite, has been tracked extensively since its accidental collision with the defunct Russian satellite Cosmos 2251 in 2009. This event, occurring at high speed in low Earth orbit (LEO), generated thousands of pieces of space debris, significantly increasing the risk of further collisions. The Iridium 33 debris cloud has impacted space traffic management and orbital debris mitigation strategies, making it a subject of ongoing study in space situational awareness.

Loading next visibility...
Identifier
34497, 1997-051GN
Orbit
LEO
Country
Flag of USUS
Related business
Manufacturer
Unknown
Mission
Spacecraft
Bus & Motor
Unknown
Mass
Unknown
Launch date (UTC)
1997-09-14 (28 years ago)
Launch vehicle
Unknown
Launch site
Tyuratam Missile And Space Complex (TTMTR)
Object type
Payload
Rocket body
Debris
Shape & HBR
Unknown shape, 0.1 m
Radar Cross Section
Small (<0.1 m²)

Expand to show TLE details & history
Last TLE update: 1 day ago

TLE from 1 day ago
0 IRIDIUM 33 DEB
1 34497U 97051GN  25349.16821135  .00001306  00000-0  50796-3 0  9999
2 34497  86.2779  51.3639 0078528 331.6581  56.4646 14.27461536869184
Epoch: 2025-12-15T04:02Z
TLE epoch observation values (Epoch: 2025-12-15T04:02:13.460Z)
Latitude
28.85569°
Longitude
-91.21951°
Altitude
773.08 km
Speed
7.486 km/s
True Right ascension
03h 33m 37s
True Declination
28° 42' 39"
Sunlit
Object was in full shadow at epoch
Visualization orbit readout
Latitude
Unknown
Longitude
Unknown
Altitude
Unknown
Speed
Unknown
Apparent Right ascension
Unknown
Apparent Declination
Unknown
Sunlit
N/A
Visualization observer readout
Local Sidereal Time
03:26:39
Azimuth
Unknown
Elevation
Unknown
Doppler factor
Unknown
Orbital elements
Apogee altitude
853.551 km
Perigee altitude
740.858 km
Semi-major axis
7,175.342 km
Eccentricity
0.00785
Inclination
86.2779°
RAAN
51.3639°
Arg. of periapsis
331.6581°
True anomaly
57.21874°
Mean anomaly
56.4646°
Eccentric anomaly
56.84126°
Mean motion
3.57091 °/min
Orbital period
100.81 mins
BSTAR
0.00050796

Documentation

Showing up to 5 results
|